Location: Long Island Community Building
(39.9491°N, 99.5338°W)
Time: 17:27:13
(UTC+00:00)

CZ-4B DEB - Pass Details

Date: 06 December 2019
Orbit: 841 x 861 km, 99.1° (Epoch: 28 January)

Event Time Altitude Azimuth Distance (km) Brightness Sun altitude
Rises 12:31:49 0° 7° (N) 3,425 7.3 -13.7°
Reaches altitude 10° 12:34:16 10° 1° (N) 2,488 6.5 -13.3°
Maximum altitude 12:39:29 46° 290° (WNW) 1,142 4.5 -12.3°
Drops below altitude 10° 12:44:43 10° 219° (SW) 2,485 6.5 -11.4°
Sets 12:47:10 0° 213° (SSW) 3,420 7.2 -10.9°
